Weather Roundup
Issued by NWS Chicago, IL

Home | Current Version | Previous Version | Graphics & Text | Print | Product List | Glossary On
Versions: 1 2 3 4 5 6 7 8 9 10 11 12 13 14 15 16 17 18 19 20 21 22 23 24 25 26 27 28 29 30 31 32 33 34 35 36 37 38 39 40 41 42 43 44 45 46 47 48 49 50
000
NZUS59 KLOT 240308
HRRLOT

CHICAGO AREA WEATHER ROUNDUP
NATIONAL WEATHER SERVICE CHICAGO/ROMEOVILLE IL
1000 PM CDT SAT JUL 23 2016

NOTE: "FAIR" INDICATES FEW OR NO CLOUDS BELOW 12,000 FEET WITH NO
SIGNIFICANT WEATHER AND/OR OBSTRUCTIONS TO VISIBILITY.

* THESE STATIONS ARE NOT UNDER NWS QUALITY CONTROL. THEY ALSO MAY NOT
  REPORT WEATHER SUCH AS PRECIPITATION OR FOG.

ILZ005-006-012>014-019>023-240400-
NORTHEAST ILLINOIS

CITY           SKY/WX    TMP DP  RH WIND       PRES   REMARKS
OHARE          TSTM      73  69  87 N10       29.99R
MIDWAY         CLOUDY    78  69  73 N6        29.96R HX  80
AURORA         TSTM      72  70  93 CALM      30.00R VSB 3/4
LANSING*       CLOUDY    74  69  82 SE6       29.95F
JOLIET*        CLOUDY    77  73  85 N6        29.98R
WAUKEGAN       LGT RAIN  71  69  93 S7        29.97F
DUPAGE AIRPORT TSTM      71  69  93 E7        29.98S FOG
WHEELING       TSTM      71  69  93 N10       30.01R FOG
MORRIS*        CLOUDY    77  71  84 CALM      29.95S
LEWIS AIRPORT* CLOUDY    74  69  84 N7        29.99R THUNDER
NORTHERLY ISL    N/A     71  68  90 S5          N/A
$$

WIZ051-052-058>065-066-070>072-240400-
SOUTHEAST WISCONSIN

CITY           SKY/WX    TMP DP  RH WIND       PRES   REMARKS
MILWAUKEE      TSTM      73  69  87 S9        29.94F
KENOSHA*       LGT RAIN  72  70  93 S13       29.96F
RACINE*        LGT RAIN  72  69  90 S5        29.97F
BURLINGTON     LGT RAIN  71  70  96 S3        29.95S
WAUKESHA       RAIN      68  66  94 S3        29.95F
$$

INZ001>003-010>013-019-020-240400-
NORTHWEST INDIANA

CITY           SKY/WX    TMP DP  RH WIND       PRES   REMARKS
GARY*          CLOUDY    75 N/A N/A SE9       29.95F
MICHIGAN CITY* NOT AVBL
RENSSELAER*    NOT AVBL
VALPARAISO     CLOUDY    73  69  87 E7        29.96F
$$

LMZ740>746-240400-
SOUTHERN LAKE MICHIGAN

STATION/POSITION TIME  SKY/WX   TEMP WIND        PRES    VSBY
                                AIR  DIR/SP/G
                 (UTC)          (F)  (DEG/KT/KT) (MB)    (MI)
HARRISON CRIB    0200            76  120/ 17/ 18   N/A
BURNHAM HARBOR   0300            73  320/  8/ 12   N/A
CALUMET HARBOR   0200            74                N/A
BURNS HARBOR     0201            73   90/ 14/ 21 1015.2S
MICHIGAN CITY    0200            73   70/ 17/ 19   N/A
$$

ABBREVIATIONS USED IN REMARKS
   TC - TEMPERATURE IN CELSIUS
  WCI - WIND CHILL INDEX
   HX - HEAT INDEX
  VSB - VISIBILITY
$$




USA.gov is the U.S. government's official web portal to all federal, state and local government web resources and services.